FW8003 Weather Reports


time (UTC)temp
F
wind
direction
speed
knots
gust
knots
rain 1hr
in
rain 24hr
in
rain mn
in
humidity
%
barometer
mb
20260506005019 80 178 0.9 5.2 0.00 0.00 0.00 80 1005.7
20260506004556 80 175 0.9 5.2 0.00 0.00 0.00 80 1005.7
20260506004018 80 151 1.7 6.1 0.00 0.00 0.00 80 1005.6
20260506003517 80 186 1.7 7.8 0.00 0.00 0.00 80 1005.6
20260506003032 80 193 2.6 7.8 0.00 0.00 0.00 79 1005.6
20260506002519 80 158 0.9 7.8 0.00 0.00 0.00 79 1005.6
20260506002017 80 149 0.9 7.0 0.00 0.00 0.00 79 1005.7
20260506001537 80 0 1.7 7.0 0.00 0.00 0.00 79 1005.5
20260506001018 81 96 1.7 7.0 0.00 0.00 0.00 79 1005.6
20260506000523 81 136 0.9 4.3 0.00 0.00 0.00 79 1005.6
20260505235519 81 206 1.7 5.2 0.00 0.00 0.00 79 1005.6
20260505235017 81 152 1.7 8.7 0.00 0.00 0.00 79 1005.5
20260505234544 81 206 1.7 8.7 0.00 0.00 0.00 79 1005.6
20260505234020 81 200 1.7 8.7 0.00 0.00 0.00 78 1005.5
20260505233517 82 180 1.7 5.2 0.00 0.00 0.00 78 1005.5
20260505233034 82 174 0.9 6.1 0.00 0.00 0.00 78 1005.6
20260505232522 82 171 1.7 6.1 0.00 0.00 0.00 78 1005.4
20260505232019 82 198 0.9 6.1 0.00 0.00 0.00 78 1005.4
20260505231538 82 224 2.6 7.0 0.00 0.00 0.00 78 1005.4
20260505231019 82 167 2.6 7.0 0.00 0.00 0.00 78 1005.4
20260505230515 82 161 2.6 7.0 0.00 0.00 0.00 78 1005.6
20260505230051 82 0 1.7 5.2 0.00 0.00 0.00 78 1005.6
20260505225518 82 160 0.9 7.8 0.00 0.00 0.00 77 1005.6
20260505225017 83 212 0.9 7.8 0.00 0.00 0.00 76 1005.6
20260505224540 83 189 2.6 7.8 0.00 0.00 0.00 75 1005.4
20260505224016 83 120 2.6 7.8 0.00 0.00 0.00 75 1005.4
20260505223516 83 109 3.5 7.0 0.00 0.00 0.00 75 1005.3
20260505223032 84 169 1.7 7.0 0.00 0.00 0.00 75 1005.4
20260505222520 84 223 0.9 6.1 0.00 0.00 0.00 76 1005.3
20260505222017 84 257 0.9 6.1 0.00 0.00 0.00 76 1005.3
20260505221535 84 126 0.0 5.2 0.00 0.00 0.00 76 1005.4
20260505221017 83 241 0.9 6.1 0.00 0.00 0.00 76 1005.6
20260505220518 83 172 0.9 7.0 0.00 0.00 0.00 76 1005.5
20260505220040 83 236 2.6 9.6 0.00 0.00 0.00 75 1005.4
20260505215516 84 177 2.6 9.6 0.00 0.00 0.00 75 1005.4
20260505215015 84 195 2.6 9.6 0.00 0.00 0.00 74 1005.6
20260505214535 84 217 1.7 7.8 0.00 0.00 0.00 76 1005.7
20260505214016 84 194 2.6 7.8 0.00 0.00 0.00 76 1005.8
20260505213515 84 164 2.6 7.8 0.00 0.00 0.00 76 1005.9
20260505213037 83 238 1.7 6.1 0.00 0.00 0.00 77 1006.0
20260505212517 83 0 0.9 6.1 0.00 0.00 0.00 77 1006.1
20260505212018 83 0 1.7 10.4 0.00 0.00 0.00 76 1006.0
20260505211537 83 134 1.7 10.4 0.00 0.00 0.00 76 1006.1
20260505211017 84 119 1.7 7.0 0.00 0.00 0.00 76 1006.2
20260505210517 84 225 0.9 7.0 0.00 0.00 0.00 76 1006.2
20260505210033 83 166 0.9 4.3 0.00 0.00 0.00 77 1006.2
20260505205517 83 25 0.9 6.1 0.00 0.00 0.00 77 1006.4
20260505205019 83 159 1.7 6.1 0.00 0.00 0.00 77 1006.5
20260505204543 83 130 1.7 7.8 0.00 0.00 0.00 77 1006.6
20260505204019 83 218 1.7 7.8 0.00 0.00 0.00 76 1006.6
20260505203519 83 140 1.7 5.2 0.00 0.00 0.00 76 1006.8
20260505203047 83 245 0.9 10.4 0.00 0.00 0.00 76 1006.9
20260505202518 83 292 2.6 10.4 0.00 0.00 0.00 76 1006.9
20260505202016 83 242 1.7 7.0 0.00 0.00 0.00 76 1006.9
20260505201537 83 227 1.7 7.0 0.00 0.00 0.00 76 1006.9
20260505201018 83 0 0.9 6.1 0.00 0.00 0.00 76 1006.9
20260505200518 83 40 1.7 7.8 0.00 0.00 0.00 76 1007.0
20260505200035 83 106 1.7 11.3 0.00 0.00 0.00 76 1007.0
20260505195516 83 238 1.7 11.3 0.00 0.00 0.00 76 1007.1
20260505195018 83 244 1.7 10.4 0.00 0.00 0.00 77 1007.1
20260505194548 83 229 1.7 6.1 0.00 0.00 0.00 77 1007.1
20260505194019 82 224 1.7 8.7 0.00 0.00 0.00 77 1007.1
20260505193517 83 237 1.7 9.6 0.00 0.00 0.00 77 1007.2
20260505193037 83 165 3.5 9.6 0.00 0.00 0.00 77 1007.3
20260505192518 82 199 2.6 7.0 0.00 0.00 0.00 79 1007.3
20260505192017 82 226 0.9 7.0 0.00 0.00 0.00 79 1007.4
20260505191540 82 130 1.7 7.0 0.00 0.00 0.00 79 1007.4
20260505191019 82 178 1.7 7.8 0.00 0.00 0.00 80 1007.4
20260505190520 81 252 1.7 8.7 0.00 0.00 0.00 79 1007.5
20260505190037 81 120 2.6 8.7 0.00 0.00 0.00 80 1007.5
20260505185515 81 144 1.7 8.7 0.00 0.00 0.00 79 1007.5
20260505185021 81 229 2.6 7.0 0.00 0.00 0.00 79 1007.6
20260505184537 81 222 0.9 7.0 0.00 0.00 0.00 80 1007.7
20260505184017 81 199 0.9 7.0 0.00 0.00 0.00 80 1007.6
20260505183518 81 119 1.7 7.8 0.00 0.00 0.00 80 1007.7
20260505183035 81 244 0.0 10.4 0.00 0.00 0.00 81 1007.8
20260505182518 80 194 3.5 10.4 0.00 0.00 0.00 81 1007.8
20260505182017 80 140 2.6 7.0 0.00 0.00 0.00 80 1007.7
20260505181537 80 227 1.7 6.1 0.00 0.00 0.00 81 1007.7
20260505181018 80 221 1.7 7.0 0.00 0.00 0.00 81 1007.8
20260505180517 80 234 2.6 7.0 0.00 0.00 0.00 81 1007.9
20260505180043 80 139 0.9 7.0 0.00 0.00 0.00 82 1007.8
20260505175517 80 0 1.7 7.0 0.00 0.00 0.00 82 1007.9
20260505175018 79 225 1.7 7.8 0.00 0.00 0.00 82 1007.8
20260505174535 79 135 0.9 7.8 0.00 0.00 0.00 83 1007.9
20260505174017 79 178 1.7 7.0 0.00 0.00 0.00 83 1008.0
20260505173519 79 219 1.7 7.8 0.00 0.00 0.00 83 1008.0
20260505173035 79 165 1.7 7.8 0.00 0.00 0.00 83 1008.0
20260505172517 79 193 0.9 7.0 0.00 0.00 0.00 83 1008.0
20260505172016 79 140 0.9 7.0 0.00 0.00 0.00 83 1008.0
20260505171532 79 217 1.7 7.0 0.00 0.00 0.00 83 1008.1
20260505171017 79 236 1.7 7.8 0.00 0.00 0.00 83 1008.1
20260505170516 79 182 2.6 7.8 0.00 0.00 0.00 83 1008.1
20260505170033 78 221 0.9 7.0 0.00 0.00 0.00 84 1008.1
20260505165515 78 233 1.7 8.7 0.00 0.00 0.00 84 1008.1
20260505165015 78 171 1.7 9.6 0.00 0.00 0.00 84 1008.2
20260505164532 78 234 1.7 9.6 0.00 0.00 0.00 85 1008.2
20260505164018 78 174 1.7 9.6 0.00 0.00 0.00 84 1008.3
20260505163519 78 241 2.6 9.6 0.00 0.00 0.00 84 1008.1
20260505163036 77 149 1.7 9.6 0.00 0.00 0.00 85 1008.3
20260505162516 77 148 1.7 7.0 0.00 0.00 0.00 84 1008.3
20260505162019 77 221 0.9 7.8 0.00 0.00 0.00 85 1008.3
20260505161534 77 209 0.9 7.8 0.00 0.00 0.00 85 1008.5
20260505161018 77 146 0.9 11.3 0.00 0.00 0.00 85 1008.5
20260505160518 77 223 1.7 11.3 0.00 0.00 0.00 84 1008.4
20260505153038 76 152 1.7 9.6 0.00 0.00 0.00 85 1008.1
20260505152515 76 168 2.6 7.0 0.00 0.00 0.00 86 1008.0
20260505152021 76 0 0.9 7.0 0.00 0.00 0.00 86 1007.9
20260505151537 75 0 1.7 7.0 0.00 0.00 0.00 86 1008.1
20260505151021 75 243 1.7 4.3 0.00 0.00 0.00 86 1008.1
20260505150520 75 231 0.9 7.0 0.00 0.00 0.00 87 1008.1
20260505140518 73 234 0.9 6.1 0.00 0.00 0.00 89 1008.0
20260505125021 71 0 0.0 7.0 0.00 0.00 0.00 91 1007.9
20260505124550 71 180 0.9 7.0 0.00 0.00 0.00 91 1007.6
20260505124018 71 142 0.9 7.0 0.00 0.00 0.00 91 1007.3
20260505123518 71 182 1.7 7.0 0.00 0.00 0.00 91 1007.1
20260505123049 71 144 2.6 7.0 0.00 0.00 0.00 91 1007.0
20260505122517 71 0 2.6 6.1 0.00 0.00 0.00 91 1007.1
20260505122017 71 194 0.9 5.2 0.00 0.00 0.00 91 1007.3
20260505121604 71 163 0.0 5.2 0.00 0.00 0.00 91 1007.5
20260505121021 71 0 0.9 5.2 0.00 0.00 0.00 91 1007.4
20260505120518 71 0 0.0 5.2 0.00 0.00 0.00 91 1007.4
20260505120035 71 132 0.9 6.1 0.00 0.00 0.00 91 1007.3
20260505115517 71 100 1.7 6.1 0.00 0.00 0.00 91 1007.3
20260505115017 71 173 0.0 3.5 0.00 0.00 0.00 91 1007.2
20260505114534 70 192 0.0 5.2 0.00 0.00 0.00 91 1007.2
20260505114017 71 191 0.9 7.0 0.00 0.00 0.00 91 1007.0
20260505113517 70 181 1.7 7.0 0.00 0.00 0.00 90 1006.9
20260505113036 70 169 1.7 5.2 0.00 0.00 0.00 90 1007.0
20260505112517 70 0 0.9 7.0 0.00 0.00 0.00 90 1007.3
20260505112018 70 209 0.9 7.0 0.00 0.00 0.00 90 1007.3
20260505111539 70 150 0.9 5.2 0.00 0.00 0.00 90 1007.1
20260505111018 70 87 0.0 5.2 0.00 0.00 0.00 90 1007.1
20260505110517 70 128 0.9 7.0 0.00 0.00 0.00 90 1007.0
20260505102015 70 170 0.9 5.2 0.00 0.00 0.00 90 1007.2
20260505101541 70 159 1.7 5.2 0.00 0.00 0.00 90 1007.1
20260505101015 70 133 0.9 5.2 0.00 0.00 0.00 90 1007.2
20260505100518 70 147 0.9 6.1 0.00 0.00 0.00 90 1007.3
20260505100043 70 120 1.7 6.1 0.00 0.00 0.00 90 1007.3
20260505095520 70 160 1.7 5.2 0.00 0.00 0.00 90 1007.3
20260505095019 70 173 0.9 4.3 0.00 0.00 0.00 90 1007.3
20260505094532 70 118 0.9 4.3 0.00 0.00 0.00 90 1007.4
20260505094016 70 173 1.7 4.3 0.00 0.00 0.00 90 1007.2
20260505093518 70 202 1.7 4.3 0.00 0.00 0.00 90 1007.1
20260505093034 70 183 1.7 4.3 0.00 0.00 0.00 89 1007.3
20260505092515 70 163 0.0 4.3 0.00 0.00 0.00 89 1007.3
20260505092018 70 159 1.7 4.3 0.00 0.00 0.00 89 1007.4
20260505091537 70 0 0.9 4.3 0.00 0.00 0.00 89 1007.6
20260505091021 70 173 0.0 3.5 0.00 0.00 0.00 89 1007.6
20260505090515 70 0 0.0 4.3 0.00 0.00 0.00 89 1007.7
20260505090032 70 121 0.0 4.3 0.00 0.00 0.00 89 1007.6
20260505085517 70 152 0.9 4.3 0.00 0.00 0.00 88 1007.7
20260505085017 70 0 0.9 3.5 0.00 0.00 0.00 89 1007.7
20260505084536 70 157 0.9 3.5 0.00 0.00 0.00 88 1007.6
20260505084018 70 166 0.9 6.1 0.00 0.00 0.00 88 1007.8
20260505083519 70 0 0.0 6.1 0.00 0.00 0.00 88 1007.6
20260505083046 70 162 1.7 7.0 0.00 0.00 0.00 88 1007.7
20260505082517 70 92 1.7 7.0 0.00 0.00 0.00 88 1007.7
20260505082018 70 175 0.0 5.2 0.00 0.00 0.00 88 1007.8
20260505081540 70 167 1.7 5.2 0.00 0.00 0.00 88 1007.9
20260505081018 70 196 0.9 6.1 0.00 0.00 0.00 88 1007.8
20260505080515 70 118 0.9 6.1 0.00 0.00 0.00 87 1007.8
20260505080045 70 0 0.9 6.1 0.00 0.00 0.00 87 1008.0
20260505075515 70 0 0.9 5.2 0.00 0.00 0.00 87 1008.1
20260505075016 70 0 0.0 5.2 0.00 0.00 0.00 87 1008.1
20260505074534 70 190 0.0 4.3 0.00 0.00 0.00 87 1008.1
20260505074022 70 163 0.9 3.5 0.00 0.00 0.00 87 1008.0
20260505073617 70 165 0.9 4.3 0.00 0.00 0.00 87 1008.0
20260505073038 70 117 0.9 4.3 0.00 0.00 0.00 87 1008.1
20260505072518 70 191 0.9 4.3 0.00 0.00 0.00 87 1008.1
20260505072017 70 203 0.9 5.2 0.00 0.00 0.00 87 1008.2
20260505071541 70 188 0.9 5.2 0.00 0.00 0.00 87 1008.4
20260505071022 70 203 0.9 4.3 0.00 0.00 0.00 86 1008.5
20260505070518 70 0 0.0 4.3 0.00 0.00 0.00 86 1008.4
20260505070037 70 173 0.0 4.3 0.00 0.00 0.00 86 1008.4
20260505065517 70 100 1.7 7.8 0.00 0.00 0.00 86 1008.4
20260505065020 70 182 0.0 7.8 0.00 0.00 0.00 86 1008.5
20260505064534 70 146 0.9 3.5 0.00 0.00 0.00 86 1008.6
20260505064019 70 132 0.9 3.5 0.00 0.00 0.00 86 1008.6
20260505063515 70 0 0.9 4.3 0.00 0.00 0.00 86 1008.5
20260505063044 70 140 1.7 5.2 0.00 0.00 0.00 85 1008.6
20260505062519 70 175 1.7 5.2 0.00 0.00 0.00 85 1008.7
20260505062021 70 214 0.9 3.5 0.00 0.00 0.00 85 1008.9
20260505061539 70 166 0.9 3.5 0.00 0.00 0.00 85 1009.0
20260505061022 70 115 0.9 3.5 0.00 0.00 0.00 85 1008.9
20260505060518 70 202 0.9 4.3 0.00 0.00 0.00 85 1009.0
20260505060035 70 177 0.9 4.3 0.00 0.00 0.00 84 1009.0
20260505055515 70 147 0.9 4.3 0.00 0.00 0.00 84 1008.9
20260505055016 70 171 0.9 5.2 0.00 0.00 0.00 84 1008.8
20260505054549 70 180 1.7 5.2 0.00 0.00 0.00 84 1008.9
20260505054018 70 161 1.7 5.2 0.00 0.00 0.00 84 1008.9
20260505053519 70 146 1.7 6.1 0.00 0.00 0.00 83 1009.0
20260505053041 70 176 1.7 6.1 0.00 0.00 0.00 83 1009.0
20260505052515 70 165 1.7 6.1 0.00 0.00 0.00 83 1009.1
20260505052015 71 190 0.9 6.1 0.00 0.00 0.00 83 1009.1
20260505051540 71 184 1.7 6.1 0.00 0.00 0.00 82 1009.2
20260505051019 71 186 0.9 6.1 0.00 0.00 0.00 82 1009.2
20260505050525 71 173 1.7 5.2 0.00 0.00 0.00 82 1009.3
20260505041545 72 178 2.6 9.6 0.00 0.00 0.00 80 1009.2
20260505041017 72 221 1.7 9.6 0.00 0.00 0.00 80 1009.2
20260505040516 72 168 3.5 9.6 0.00 0.00 0.00 80 1009.1
20260505040041 72 161 3.5 9.6 0.00 0.00 0.00 80 1009.2
20260505035519 72 196 2.6 9.6 0.00 0.00 0.00 80 1009.3
20260505035017 72 209 0.9 5.2 0.00 0.00 0.00 80 1009.4
20260505034538 72 188 0.9 6.1 0.00 0.00 0.00 79 1009.5
20260505034018 72 172 1.7 8.7 0.00 0.00 0.00 79 1009.4
20260505033518 72 120 2.6 11.3 0.00 0.00 0.00 79 1009.3
20260505033036 72 182 2.6 11.3 0.00 0.00 0.00 78 1009.3
20260505032522 72 88 2.6 11.3 0.00 0.00 0.00 78 1009.5
20260505032014 73 171 1.7 7.0 0.00 0.00 0.00 78 1009.5
20260505031540 73 0 0.9 6.1 0.00 0.00 0.00 78 1009.5
20260505031018 73 192 1.7 7.8 0.00 0.00 0.00 77 1009.5
20260505030516 73 142 1.7 7.8 0.00 0.00 0.00 77 1009.4
20260505030051 73 192 1.7 8.7 0.00 0.00 0.00 77 1009.5
20260505025516 73 189 1.7 8.7 0.00 0.00 0.00 77 1009.5
20260505025016 74 170 2.6 9.6 0.00 0.00 0.00 77 1009.4
20260505024531 74 184 2.6 9.6 0.00 0.00 0.00 76 1009.3
20260505024018 74 140 0.9 6.1 0.00 0.00 0.00 77 1009.3
20260505023515 74 196 2.6 8.7 0.00 0.00 0.00 76 1009.1
20260505023037 74 187 2.6 8.7 0.00 0.00 0.00 77 1009.2
20260505022516 74 175 1.7 5.2 0.00 0.00 0.00 77 1009.2
20260505022018 74 0 0.9 7.0 0.00 0.00 0.00 77 1009.2
20260505021549 74 200 1.7 7.0 0.00 0.00 0.00 77 1009.3
20260505021018 73 167 2.6 6.1 0.00 0.00 0.00 77 1009.3
20260505020518 73 182 1.7 6.1 0.00 0.00 0.00 77 1009.3
20260505020049 73 157 0.9 6.1 0.00 0.00 0.00 77 1009.2
20260505015516 73 182 0.9 4.3 0.00 0.00 0.00 77 1009.1
20260505015016 73 0 0.0 2.6 0.00 0.00 0.00 77 1009.2
20260505014536 73 0 0.9 4.3 0.00 0.00 0.00 77 1009.1
20260505014019 74 0 0.0 4.3 0.00 0.00 0.00 76 1009.1
20260505013515 74 0 0.0 4.3 0.00 0.00 0.00 76 1009.1
20260505013032 74 146 0.9 4.3 0.00 0.00 0.00 76 1008.8
20260505012515 74 209 0.9 2.6 0.00 0.00 0.00 75 1008.8
20260505012022 75 178 0.9 4.3 0.00 0.00 0.00 75 1008.8
20260505011538 75 183 0.9 4.3 0.00 0.00 0.00 75 1008.8
20260505011017 75 167 0.9 7.0 0.00 0.00 0.00 74 1008.8
20260505010515 75 134 0.0 7.0 0.00 0.00 0.00 74 1009.0
20260505010045 76 211 2.6 7.0 0.00 0.00 0.00 73 1008.8
20260505005515 76 181 1.7 7.8 0.00 0.00 0.00 73 1008.8